bpm-power.com alexa rank chart, bpm-power.com alexa rank daily changes

bpm-power.com alexa rank chart, bpm-power.com alexa rank daily changes

bpm-power.com
Actual rank:
82 341

RANK HISTORY

Date Rank Diff
2017/03/28 82 341 +2 124
2017/03/27 80 217 -1 796
2017/03/26 82 013 -272
2017/03/25 82 285 +1 483
2017/03/24 80 802 +1 317
2017/03/23 79 485 +1 808
2017/03/22 77 677 -70
2017/03/21 77 747 +1 903
2017/03/20 75 844 +2 742
2017/03/19 73 102 +409
2017/03/18 72 693 -440
2017/03/17 73 133 +1 272
2017/03/16 71 861 +2 114
2017/03/15 69 747 +1 091
2017/03/14 68 656 +2 587
2017/03/13 66 069 -483
2017/03/12 66 552 +1 070
2017/03/11 65 482 +441
2017/03/10 65 041 +25
2017/03/09 65 016 +1 621
2017/03/08 63 395 +681
2017/03/07 62 714 +3 027
2017/03/06 59 687 +616
2017/03/01 59 071 -398
2017/02/28 59 469 +16
2017/02/27 59 453 +1 057
2017/02/26 58 396 +487
2017/02/25 57 909 -827
2017/02/24 58 736 +84
2017/02/23 58 652 -770
2017/02/22 59 422 +70
2017/02/21 59 352 +1 418
2017/02/20 57 934 +125
2017/02/19 57 809 -451
2017/02/18 58 260 +1 509
2017/02/17 56 751 +1
2017/02/16 56 750 -1 587
2017/02/15 58 337 +440
2017/02/14 57 897 +126
2017/02/13 57 771 +1 523
2017/02/12 56 248 +975
2017/02/11 55 273 +366
2017/02/10 54 907 -353
2017/02/09 55 260 -909
2017/02/08 56 169 +905
2017/02/07 55 264 +849
2017/02/06 54 415 -77
2017/02/05 54 492 -2
2017/02/04 54 494 -702
2017/02/03 55 196 -678
2017/02/02 55 874 -421
2017/02/01 56 295 -686
2017/01/31 56 981 +246
2017/01/30 56 735 +321
2017/01/29 56 414 +1 132
2017/01/28 55 282 +2
2017/01/27 55 280 -1 045
2017/01/26 56 325

WIDGET FOR YOUR SITE

DOMAINS WITH THE NEAREST RANK

Domain Rank
youronlinechoices.com 82 336
ouka.fi 82 337
xn--athe-1ua.net 82 338
bredbandsbolaget.se 82 339
yibiao.cn 82 340
bpm-power.com 82 341
thetodaysource.com 82 342
blueco.com.tw 82 343
prehits.com 82 344
eenteresting.com 82 345
enciclopediafinanciera.com 82 346

DOMAINS WITH THE NEAREST RANK BY TLD .com

Domain Rank
boinkplay.com 82 322
christmastreeshops.com 82 327
milutilidades.com 82 328
dexmedia.com 82 330
youronlinechoices.com 82 336
bpm-power.com 82 341
thetodaysource.com 82 342
prehits.com 82 344
eenteresting.com 82 345
enciclopediafinanciera.com 82 346
ringtv.com 82 352